Flag for Russia Weather past 2 weeks in Bryansk, Russia

Now
64 °F

Passing clouds.


Feels Like: 64 °F
Forecast: 35 / 65 °F
Wind: 3 mph from Southeast

Location: Brjansk

Current Time: Sep 19, 2014 at 4:16:22 PM

Latest Report: Sep 19, 2014 at 3:00 PM


Visibility: N/A

Pressure: 30.36 "Hg

Humidity: 34%

Dew point: 36 °F

Location of BryanskLocation

Historic Weather in Bryansk — Graph

°F

Bryansk temperature yesterday

Maximum temperature yesterday: 61 °F (at 2:00 PM)
Minimum temperature yesterday: 36 °F (at 8:00 AM)
Average temperature yesterday: 53 °F

Past Weeks' High & Low Weather Summary

 TemperatureHumidityPressure
High77 °F (Sep 13, 4:00 PM)100% (Sep 15, 11:00 PM)30.42 "Hg (Sep 15, 11:00 PM)
Low36 °F (Sep 18, 8:00 AM)29% (Sep 11, 6:00 PM)30.04 "Hg (Sep 9, 5:00 PM)
Average60 °F62%30.24 "Hg
* Reported Sep 4 3:00 PM — Sep 19 3:00 PM, Bryansk, Weather by CustomWeather, © 2014

Note: Actual official high and low records may vary slightly from our data, if they occured in-between our weather recording intervals... More about our weather records

Advertising

Bryansk weather history for previous 24 hours

 ConditionsComfort  
Time TempWeatherWind HumidityBarometerVisibility
3:00 PM
Sep 19
64 °FPassing clouds.3 mph34%30.36 "HgN/A
2:00 PM63 °FSunny.No wind37%30.39 "Hg10 mi
1:00 PM63 °FSunny.3 mph39%30.39 "Hg10 mi
12:00 PM59 °FSunny.1 mph48%30.42 "Hg10 mi
11:00 AM54 °FSunny.1 mph54%30.42 "Hg10 mi
10:00 AM48 °FSunny.3 mph66%30.42 "Hg10 mi
9:00 AM43 °FSunny.1 mph81%30.39 "Hg10 mi
8:00 AM37 °FClear.3 mph87%30.39 "Hg10 mi
7:00 AM37 °FClear.3 mph87%30.39 "Hg10 mi
6:00 AM39 °FClear.3 mph87%30.39 "Hg10 mi
5:00 AM37 °FClear.3 mph87%30.39 "Hg10 mi
12:00 AM45 °FClear.1 mph71%30.39 "Hg10 mi
11:00 PM
Sep 18
46 °FClear.3 mph71%30.39 "Hg10 mi
10:00 PM46 °FClear.3 mph71%30.39 "Hg10 mi
9:00 PM50 °FClear.3 mph62%30.36 "Hg10 mi
8:00 PM52 °FSunny.3 mph62%30.36 "Hg10 mi
7:00 PM57 °FSunny.3 mph48%30.36 "Hg10 mi
6:00 PM61 °FPassing clouds.3 mph45%30.36 "HgN/A
5:00 PM61 °FScattered clouds.6 mph45%30.36 "HgN/A
4:00 PM61 °FScattered clouds.6 mph45%30.36 "HgN/A
Weather by CustomWeather, © 2014

See weather overviewHow to use our weather pages